Location: Gazon
(48.1318°N, 1.2708°W)
Time: 22:12:48
(UTC+00:00)

H-2A R/B - Pass Details

Date: 18 September 2020
Orbit: 734 x 836 km, 98.2° (Epoch: 24 October)

Event Time Altitude Azimuth Distance (km) Brightness Sun altitude
Rises 19:13:45 0° 169° (S) 3,159 4.9 -11.2°
Reaches altitude 10° 19:16:01 10° 171° (S) 2,247 4.2 -11.6°
Maximum altitude 19:20:57 74° 257° (WSW) 785 2.2 -12.4°
Drops below altitude 10° 19:26:02 10° 343° (NNW) 2,315 5.0 -13.2°
Sets 19:28:23 0° 345° (NNW) 3,261 5.7 -13.6°
